sat.trackr.live / text

‹ back to catalog

STARLINK-5401

NORAD 54870 · 2022-177BC

PAYLOAD ACTIVE UNKNOWN

§ Identity

Operator
Country
US
Launch date
2022-12-28
Launch site
AFETR
Launch vehicle
Mass (kg)
RCS (m²)

Purposes: comms

External: N2YO · Heavens-Above · Gunter

§ Orbital elements

Epoch: 2026-09-20T22:14:30.583104Z

Period
94.27 min
Inclination
43.0038°
Eccentricity
0.0001352
Mean motion
15.27574936 rev/d
Perigee alt
482.1 km
Apogee alt
484.0 km
Semi-major
6,861.2 km
B*
-3.4953e-6
RAAN
98.6372°
Arg perigee
271.1158°
Mean anomaly
88.9539°
Rev number
20,695

§ Raw data

STARLINK-54011 54870U 22177BC  26263.92674286 -.00000358  00000+0 -34953-5 0  99922 54870  43.0038  98.6372 0001352 271.1158  88.9539 15.27574936206958

JSON: /api/v1/satellites/54870 · /tle

For live sub-satellite position, see the globe view (requires WebGL).

§ Visibility from observer

Set your observer location to see the next 7 days of passes ≥ 10°. The values pass through the URL so the page stays shareable.

No JS? Fill the form by hand. The geolocation button needs JavaScript.